User: anonymous   Login
Location: Lima
(44.6384°N, 112.5920°W)
Time: 23:08:22
(UTC+00:00)
Language:

SPROUT - Orbit

View from above orbital plane
View from above orbital plane
View from above satellite
View from above satellite

Ground track
Ground track

The orbit data is extracted from the following two-line orbital elements,

1 39770U 14029E   24114.87298204  .00145242  00000-0  45656-2 0  9990
2 39770  98.0097 262.3837 0005349 296.6845  63.3847 15.32362283539297
Epoch (UTC): 23 April 2024 20:57:05
Eccentricity: 0.0005349
inclination: 98.0097°
perigee height: 465 km
apogee height: 472 km
right ascension of ascending node: 262.3837°
argument of perigee: 296.6845°
revolutions per day: 15.32362283
mean anomaly at epoch: 63.3847°
orbit number at epoch: 53929

The dashed part of the orbit path shows where the satellite is in the earth's shadow,  

DLR